Вернуться в каталог

COSMOS 1275 DEB

АктивенPO
NORAD 14357·DEBRIS·🇷🇺 Russia

Запущен Jun 4, 1981 с Plesetsk Cosmodrome

Loading…

Ближайшие Пролёты (ближайшие 24 часа)

TLE

СвежийSource: Space-Track

Эпоха: Sep 14, 2026, 00:35 UTC

1 14357U 81053HQ  26257.02476574  .00001209  00000-0  57813-3 0  9993
2 14357  82.8417 279.2619 0041942 127.2866 260.9801 14.17951081216372

Отслеживайте COSMOS 1275 DEB в реальном времени с AllMySat

Download on the App Store